GFSSE_prec_radar_276.txt.gz
Reflectivity
-20 2 -20 -20 5 4 2 -20 -10 -14 10 -16 -20 -13 -20 6 13 27 29 28 18 29 10 4 -19 -20 -20 -20 -20 -20 -20 -20 -20 -20 -20 -20 -20 -20 -20 -20 -20 -20 -20
-20 -20 -20 -20 -19 -20 -19 -19 10 -18 -20 2 6 -2 8 1 -2 28 10 28 37 36 20 -0 -20 -20 -20 -20 -20 24 -20 -20 -20 -20 -20 -20 -20 -20 -20 -20 -20 -20 -20
-20 -20 -20 -16 -4 -20 -19 -1 -20 26 -11 1 -12 -6 5 -20 -3 8 11 22 37 29 28 27 28 28 10 -17 -20 22 -20 -2 -20 -20 -20 -20 -20 -20 -20 -20 -20 -20 -20
-20 -20 -20 -20 -5 7 -7 -20 -13 -4 7 -10 -7 -1 1 -15 -20 14 15 -8 15 30 25 3 -12 -16 -20 -10 -20 -20 -20 -20 -20 -20 -20 -20 -20 -20 -20 -20 -20 -20 -20
-20 -20 -20 -20 -6 1 -9 -20 -20 20 -11 12 2 -9 13 3 -5 13 13 22 27 28 11 4 -5 -20 -20 -20 -20 -13 -20 -20 -20 -20 -20 -20 -20 -20 -20 -20 -20 -20 -20
-20 -20 -8 -20 -20 -9 -20 -10 -3 -1 -18 -17 -20 -3 6 11 12 6 7 7 6 9 18 4 -20 -20 -20 -20 -19 20 -20 -20 -20 -20 -20 -20 -20 -14 -20 -4 -20 -20 -20
-20 -20 -20 -20 -20 3 -20 -12 -4 -11 5 -14 -20 -0 -19 4 10 8 9 6 10 20 13 -10 -20 -20 -20 -20 -20 -20 -20 -20 -20 -20 -20 -20 -20 1 -20 -20 -19 -13 -20
-20 -20 -20 -20 -20 -13 -13 -20 -20 -20 -2 1 -20 -20 -20 -17 14 3 -1 -12 6 13 1 -15 -20 -20 -20 -20 -20 -20 -20 -20 -20 -20 -20 -20 -20 -20 -20 -20 -2 -20 -20
-20 -20 -20 -20 -20 -20 -20 -20 -20 -20 -14 10 -4 -4 -16 7 -19 6 6 -3 2 -1 -15 -7 -20 -14 -20 -20 -20 -19 -17 -20 -20 -20 -20 -20 -20 -20 -20 -18 -2 -20 -20
-20 -20 -20 -20 -20 -20 -20 -19 -20 -20 4 4 0 -20 6 -20 -20 -20 -20 8 11 14 -18 -17 -14 -9 -20 -20 -20 -20 -20 -20 -20 -20 -20 -20 -20 -20 -20 -20 -17 -20 -20
-20 -20 -20 -20 -20 -20 -20 -20 -20 -20 -20 -20 -13 -19 -16 -20 -20 -20 -20 -20 -16 -20 -20 -20 -20 -20 -20 -20 -20 -20 -20 -20 -20 -20 -20 -20 -20 -20 -20 -20 -5 -20 -20
-20 -20 -20 -20 -20 -20 -20 -20 -20 -20 -20 -20 -20 10 -20 -20 -20 -20 -20 -20 -20 -20 -20 -20 -20 -20 -20 -20 -20 -20 -20 -20 21 -20 -20 23 -20 -19 -20 -20 -20 -20 -20
-20 -20 -20 -20 -20 -20 -20 -20 -20 -20 -20 -20 -20 -20 -20 -20 -20 -20 -20 -20 -20 -20 -20 -20 -20 -20 -20 -20 -20 -20 -20 -20 -20 -0 -1 1 -19 -9 -20 -20 -20 -20 -20
-20 -20 -20 -20 -20 -20 6 -19 -20 -20 -20 -20 -20 -20 -20 -20 -20 -20 29 -20 -20 -20 -20 -20 -20 -20 -20 -20 -20 -20 -20 -20 -20 -20 -20 -2 -12 10 -20 -20 -20 -20 -20
-20 -20 -20 -20 -20 -20 -20 -19 -20 -20 -20 -20 -20 -20 -20 -20 -20 -20 -20 -20 -20 16 -20 -20 -20 -20 -20 -20 -20 -20 -20 -20 -20 -20 -20 -20 -20 17 1 -20 -20 -20 -20
-20 -20 -20 -20 -20 -20 -20 -20 -20 -20 -20 -20 -20 -20 -20 -20 -20 -20 -20 -10 -20 -20 -9 -5 -20 -20 -20 -20 -20 -20 -20 -11 -20 -20 -20 -20 -20 -9 -2 -16 10 -20 -20
-20 -20 -20 -20 -20 -20 -15 -4 -20 -20 -20 -20 -20 -20 -20 -20 -20 -20 -20 -20 -20 -20 -20 -20 -20 -20 -20 -20 -20 -20 -20 -20 -20 -7 -20 -10 -20 23 4 -13 29 19 -5
-20 -20 -20 -20 -20 -20 -20 -18 -20 -20 -20 -20 -20 -20 -20 -20 -20 -20 -20 -20 -20 -20 -20 -20 -20 -20 30 -10 -20 -20 -20 -20 -12 31 -13 -9 -10 -20 27 25 28 28 32
-20 -20 -20 -20 -20 -20 -17 -20 -20 -20 -7 -20 -20 -20 -20 -20 -20 -20 -20 -20 -20 -20 25 4 -20 31 -20 -20 -20 -20 -20 -20 33 -11 -20 -19 -20 16 -11 3 -12 37 17
-20 -20 -20 -20 -20 -20 -20 -20 -20 -20 -20 -20 -20 -20 -20 -20 -20 -20 -20 -20 -20 -20 -20 19 -20 -20 -20 -20 -20 -20 -14 31 29 30 -20 -12 -3 3 10 14 -1 25 33
-20 -20 -20 -20 -20 -20 -20 -20 -20 -20 -20 -20 -19 -20 -20 -20 -20 -20 -20 -20 -20 -20 -20 -20 -15 -17 -20 -5 32 21 -19 -6 -20 16 -20 -20 -20 -20 -17 -19 27 19 28
-3 -20 -20 -20 -20 -20 28 -20 -20 -20 -20 -20 5 -20 -20 -20 -20 -20 25 -20 -20 -20 9 -20 -20 -20 -20 -20 -13 0 6 -20 34 -20 -20 -20 -20 -20 16 20 26 16 -0
-10 19 -20 -20 -20 -20 -20 -20 -20 -20 -20 -19 -20 -20 -20 -20 -20 -20 10 6 -20 -20 -7 -10 -20 -18 -20 -20 -20 -20 -20 -20 -20 -20 -20 -20 -20 -20 -16 23 3 5 -6
-20 -20 -20 -18 22 -20 -20 -20 -20 -20 -20 -20 -20 -20 -20 -20 -20 -19 26 -10 -10 -18 24 -20 -9 -13 24 -20 -20 12 1 20 -20 -20 -20 -20 -20 -20 -16 -20 -20 -20 -18
-20 -20 -20 -20 -20 -20 -20 -20 -20 -20 -20 -20 -20 -20 -20 -20 -20 -20 -20 -20 -20 -20 -20 -20 -20 -20 -13 -20 -20 -20 -20 -20 -20 -20 -8 -20 -20 -20 -20 -20 -20 -20 -20
-20 -20 -20 -20 -20 -20 -20 -20 3 -20 -20 -20 -20 -20 -20 -20 -20 -20 -20 -20 -20 -20 -20 -20 -20 -20 -20 -20 -20 -20 -20 -20 -20 -20 -20 -20 -20 -20 -20 -20 -20 -20 -20

GFSSE_prec_radar_279.txt.gz
Reflectivity
-20 -20 -20 19 -5 8 -8 5 -12 5 -4 -6 3 7 6 -1 29 8 26 24 6 15 16 -10 -7 -20 -20 -20 32 -20 -20 -20 -20 -20 -20 4 -18 -15 -3 -20 -20 -20 -20
-20 -20 -20 -18 7 8 2 -14 12 5 -20 -20 5 9 18 20 29 31 32 27 3 25 27 29 -4 -20 -20 33 -20 -20 -20 -20 -20 -20 -20 1 5 -5 -20 -20 -20 -20 -18
-12 -19 5 -20 -17 6 -15 7 -13 -3 -20 11 1 -3 3 4 30 28 8 32 17 25 20 22 -20 -20 -17 23 2 -20 -20 -18 4 -17 -20 -20 -8 -17 -20 -12 0 -9 -7
-20 -20 -20 -20 -15 5 -7 -6 -18 1 2 -15 -20 -6 -0 8 27 27 28 22 36 33 12 -17 2 30 -19 -11 -20 -20 -20 -20 -20 -20 -20 -20 -11 -1 -2 -11 -20 -20 -20
-20 -20 -20 -12 -11 -20 -9 -4 -2 6 -5 -5 -20 -0 -9 -8 2 28 25 27 32 27 30 23 -10 -1 -4 3 -19 -20 -14 -20 -20 -20 -20 -20 -20 -1 -14 -20 -20 -20 -20
-20 -20 -20 9 1 -16 -3 12 10 8 4 -17 3 -18 11 -15 -16 -3 14 15 29 25 14 -20 -20 -19 -20 -20 -20 -20 -20 -20 -20 -20 -20 -20 -20 -4 -20 -20 -20 -20 -20
-20 -20 -20 1 -3 2 -2 -18 -1 -9 6 -13 -19 10 -19 35 -8 -10 -20 1 25 25 9 -2 -20 -20 -20 -20 -20 -20 -20 -20 -20 -20 -20 -20 -20 -18 -20 -20 -20 -20 -20
-20 -20 -0 -20 2 -10 6 -1 -5 -10 -11 9 5 -8 13 5 13 29 4 7 10 -0 -5 -18 -20 -20 -20 -20 -20 -20 -20 -20 -20 -20 -20 -20 -20 -20 -20 -20 -20 -5 -20
-20 -20 -20 -19 -9 -18 -20 -0 -17 -20 -20 1 -18 -8 2 1 15 4 -6 -9 7 26 23 -20 -20 -20 -20 -20 -20 -20 -20 -20 -20 -20 -20 -20 -20 -20 -20 -20 -20 -20 -10
-20 -20 -20 -20 -20 -20 -15 2 1 -19 15 -15 6 4 -3 1 -19 8 -7 2 -15 21 -12 13 -20 -20 -20 -20 -20 -20 -20 -20 -20 -20 -20 -20 -20 -20 -20 -20 -20 -20 -20
-20 -20 -20 -20 -20 -20 -20 2 2 4 -8 -2 -14 -20 -11 -1 -20 -20 -18 13 -3 -11 -20 -18 -5 -20 -20 -20 -20 -20 -20 -20 -20 -20 -20 -20 -20 -20 -15 -20 -20 -20 -20
-20 -20 -20 -20 -20 -20 -20 -20 -20 -20 -20 -20 -20 -20 -20 -20 -20 -20 -13 -10 -19 -17 -20 -20 -20 -20 -20 -20 -20 -20 -20 -20 -16 -20 -20 -20 -20 -20 -20 -20 -19 -20 -20
-20 -20 -20 -20 -20 -20 -20 -20 -20 -20 -20 -20 -20 -20 -20 -20 -20 -20 -20 -20 -20 -20 -20 -20 -20 -20 -20 -20 -20 -20 -20 -20 -20 -20 -20 -0 -19 12 -20 -20 -16 -20 -20
-20 -20 -20 -20 -20 -20 -20 -20 -20 -20 -20 -20 -20 -20 -20 -20 -20 -20 -20 -20 -20 -20 -20 -20 -20 -20 -20 -20 -20 -20 -20 -20 -20 -20 -20 -12 -20 -20 -20 -20 -20 -8 -20
-20 -20 -20 -20 -20 -20 -20 -20 -20 -20 -20 -20 -20 -20 -20 -20 -20 -20 -20 -20 -20 -20 -20 -20 -20 -20 -20 -20 -20 -20 -20 -20 -20 -20 -20 -20 -20 -20 -20 -20 -19 -2 -5
-20 -20 -20 -20 -20 -20 -20 -20 13 -20 -20 -20 -20 -20 -20 -20 -20 -20 -20 -20 -20 -20 -20 -20 -20 -20 -20 -20 -20 -20 -20 -20 -20 5 -20 -20 -20 -20 -18 -14 -0 -13 -20
-20 -20 -20 -20 -20 -20 23 -20 -20 -20 -20 -20 -20 -20 -20 -20 -20 -20 -20 -20 -20 -20 -20 -20 -20 -20 -20 -20 -20 -20 7 -20 -20 -20 -20 -20 -20 -20 -20 -14 24 13 32
-20 -20 -20 -20 -20 -20 -20 -20 -20 -20 -20 -20 -20 -20 -20 -20 -20 -20 -19 -20 -20 -20 14 20 -20 -20 -20 32 -17 -20 -20 -20 23 -19 -20 5 2 -20 -20 -2 -2 -5 23
-20 -20 -20 -20 -20 -20 -20 -20 -20 -20 5 -20 -20 -20 -20 -20 -20 -20 -20 -20 -20 -18 -20 -20 -20 -20 -20 -20 -20 -20 -20 -20 -20 -20 -20 -20 -15 2 -13 -20 -9 24 27
-20 -20 -20 -20 -20 -20 -20 -20 -20 -20 -20 8 -17 -20 -20 -20 -20 -20 -20 16 -14 -20 -20 -4 -20 29 -14 -8 -20 -20 -20 -19 -20 -20 -20 -20 -20 -19 -19 -6 -17 -20 12
-20 -20 -20 -20 -20 -20 -20 -20 -20 -20 -20 -20 -20 28 -19 9 -20 34 33 -16 -20 31 -4 31 28 36 -20 -20 20 20 -20 -20 -20 -18 -20 -20 -20 -20 11 -20 -20 -13 10
-20 -20 -20 -20 -20 -20 -20 -20 -20 -20 -20 -20 -20 -20 9 8 -20 25 -12 -15 -20 -20 -7 -20 -20 -20 -20 -20 -20 -20 -20 -20 -20 -20 -20 -20 -20 -20 -20 -20 -20 -20 -20
-20 -20 -20 -20 -20 -20 -20 -20 -20 -20 -20 -20 -20 -20 -20 -20 -20 -20 -20 -20 -20 -20 -20 -20 -20 -20 -20 -20 -20 -20 -20 -20 -20 -20 -20 -20 -20 -20 -20 -20 -20 -20 -20
-20 -20 -20 -20 -20 -20 -20 -20 -20 -20 -20 -20 -20 -20 -20 -20 -20 -20 -20 -20 -20 -20 -20 -20 -20 -20 -19 -12 -20 -20 -20 -20 -20 -20 -20 -20 -20 -20 -20 -20 -20 -20 -20
-20 -20 -20 15 -20 -20 -20 -20 -20 -20 -20 7 -5 -20 -10 3 -20 -20 -15 -20 -20 -20 -20 -20 -20 -20 -20 -20 -20 -20 -20 -20 -20 -20 -20 -2 -20 -20 -20 -20 -20 -20 -20
-20 -20 -20 -1 -20 -20 -20 -20 -20 -20 -1 -20 -20 -20 -20 -19 -9 -20 -20 -20 -20 -20 -20 -20 -20 -20 -20 -1 -20 -20 -20 -20 -20 -20 -20 -20 -20 -20 -20 -20 -20 -20 -20

GFSSE_prec_radar_285.txt.gz
Reflectivity
-20 -20 -20 -20 -20 -20 -15 -17 12 2 -20 -9 1 30 -19 16 28 25 27 23 7 -19 -20 -20 8 -20 -2 20 32 -20 -20 -20 -20 -20 -20 6 -15 -20 -12 -20 -20 -20 -20
-20 -20 -20 -7 -20 -17 -15 9 5 -20 -3 6 -17 28 27 27 28 28 24 -20 -20 7 19 -20 -20 -19 20 24 -17 -20 -20 -20 4 -1 2 -18 -20 -20 -20 -20 -20 -20 -20
-9 8 2 -20 -20 -20 -20 -15 13 -14 17 23 3 -17 33 30 28 22 9 -20 -18 -5 -4 -20 -20 -20 14 -20 -20 -20 -20 8 9 -20 -20 -20 -20 -10 5 -20 -20 -20 -20
-20 -10 -20 -20 -20 -20 -11 4 -11 -20 -20 32 -19 31 4 42 42 30 27 -13 22 12 -20 -20 -20 3 -15 1 12 13 -6 -15 -20 -20 -20 -20 -20 -20 -14 1 -11 -20 -20
-16 -20 -20 -20 -20 -20 -4 12 6 -20 -18 1 30 34 32 40 34 33 30 -10 27 5 -20 -20 -8 8 -20 -20 -20 -14 -20 -20 -20 -20 -20 -20 -20 -20 -20 5 -4 -20 -20
-20 -8 -20 -20 -20 2 -20 -13 -10 1 -20 -20 -1 4 31 27 23 26 23 19 16 29 32 -19 5 -20 -20 6 -1 -15 6 -20 -20 -20 -20 -20 -20 -20 -20 -20 2 -2 4
-2 4 -16 -20 -20 -20 24 -20 -12 -19 -20 -20 -20 -20 -19 -12 -17 12 24 21 30 12 -17 -4 -1 4 -0 -8 5 -20 -20 -20 -20 -20 -20 -20 -20 -20 -20 -20 -20 -20 -20
-20 -20 12 -20 -20 -20 -20 -20 7 -14 8 3 -20 -17 -16 -20 -19 15 19 29 18 -20 -12 -15 -20 -20 -20 -20 -20 -20 -20 -20 -20 -20 -20 -20 -20 -20 -20 -7 -20 -20 -20
-20 -20 -20 13 10 -20 -20 -20 -20 -20 4 6 -20 -19 -13 -20 3 16 15 24 27 -1 -19 -20 -20 -20 -20 -20 -20 -20 -20 -20 -20 -20 -20 -20 -20 -20 -20 -16 -17 -9 -20
-20 -9 -20 -3 -20 -20 4 -19 -20 -20 13 5 -13 -20 -6 -11 -1 10 28 13 9 2 -20 -20 -20 -20 -20 -20 -20 -20 -20 -20 -20 -20 -20 -20 -20 -20 -20 -20 -20 -10 9
-20 -6 -3 -3 -11 -20 -15 -20 -13 -20 -20 -16 -16 -13 10 10 2 -11 -9 3 21 13 -20 -20 -20 -20 -20 -20 -20 -20 -20 -20 -20 -20 -20 -20 -20 -20 -20 -20 -20 -20 -20
-20 -20 -15 -1 3 -20 -20 2 -20 -14 -20 -20 -19 -13 -19 -20 -14 -20 -20 -16 10 16 21 -20 -20 -20 -20 -20 -20 -20 -20 -20 -20 -20 -20 -20 -20 -20 -20 -20 -20 -20 -20
-20 -20 -20 -20 -20 -20 -20 -18 -20 -20 -20 -20 -20 -20 -18 -20 -0 -17 -20 -19 -4 -17 -17 2 -0 -20 -20 -20 -20 -20 -20 -20 -20 -20 -20 -20 -20 4 -20 -20 -19 -20 -20
-20 -20 -20 -20 -20 -20 -20 -20 -20 -20 -20 -20 -20 -20 -20 -20 -20 -20 -20 -20 -2 -20 -20 -20 -20 -20 -20 -20 -20 -20 -20 -20 -20 -20 -20 -20 -20 -20 -20 -20 -20 -20 -20
-20 -20 -20 -20 -20 -20 -20 -20 -20 -20 -20 -20 -20 -20 -20 -20 -20 -20 -20 -20 -20 -20 -20 -20 -20 -20 -20 -20 -20 -20 -20 -20 -20 -20 -20 -20 -20 -20 -15 5 -10 -18 -1
-20 -20 -20 -20 -20 -20 -20 -20 -20 -20 -20 -20 -20 -20 -19 -20 -20 -20 -20 -20 -20 -20 -20 -20 -20 -20 -20 -20 -20 -20 -20 -20 -20 -20 -20 -20 -20 -19 -13 -13 8 -1 21
-20 -20 -20 -20 -16 -20 -20 -20 -20 -20 -20 -20 -20 -16 -20 -20 26 27 -20 -20 -20 -20 -20 -20 -20 -20 -20 -20 -20 -20 -20 -20 -20 -20 -20 -20 -20 -20 -20 -20 -10 -20 -8
-20 -20 -20 -20 -20 -20 -20 -20 -20 -20 -20 -20 -20 -20 -20 -20 -20 -20 -20 -20 -20 -20 -20 -20 -20 -20 -20 -20 -20 -20 -20 -20 -20 -20 -20 -20 -20 -17 -20 -20 16 28 -6
-20 -20 -20 -20 -20 -20 -20 -20 -20 -20 -20 -20 -20 -20 -20 -20 -20 -20 -20 -20 -20 -20 -20 -20 -20 -20 14 19 -20 -20 -20 -20 -20 -20 -20 -20 -20 -20 -20 -20 2 7 -17
-20 -20 -20 -20 -20 -20 -20 -20 -20 -20 -20 -20 -20 -20 -20 -20 -20 -20 -20 -20 -20 -5 17 18 -6 28 -5 -20 -20 -20 -20 -20 -20 -20 -20 -20 -20 -20 -20 -20 -20 -20 -20
-20 -20 -20 -20 -20 -20 -20 -20 -20 -20 -20 -20 -20 -20 -20 -20 -20 33 35 -13 -9 31 -20 -20 -20 -14 23 3 31 -20 -20 -20 -20 -20 -20 -20 -20 -20 -20 -20 -20 -20 -20
-20 -20 -20 -18 -20 -20 -20 -20 -20 -20 -20 -20 -20 -20 -20 -20 -20 -20 27 -12 -20 28 7 19 25 -13 10 -17 3 -20 -20 -20 -20 -20 -20 -20 -20 -20 -20 -20 -20 -20 -20
-20 -20 -20 -18 16 -20 -20 -20 -20 -20 -20 -20 -20 -20 -20 -20 -20 -20 -4 -0 24 32 1 4 28 9 33 -15 -20 3 7 -20 -20 -20 -20 -20 -20 -20 -20 -20 -20 -20 -20
-20 -20 -20 -20 -20 -20 -20 -20 -20 -20 -10 -20 -20 -20 -20 -20 -20 -20 -20 -20 -14 -15 -19 -9 -20 -20 -20 -13 -20 -20 3 -20 19 -20 -20 -20 -20 -20 -20 -20 -20 -20 -20
-20 -20 -20 -20 -20 -20 -20 -20 -20 -20 30 -20 -20 -20 -20 -20 -20 -20 -20 -20 -19 -20 -20 -20 -20 -20 -20 -20 -20 -20 -17 1 -20 -20 -20 -20 -20 -20 -20 -20 -20 -20 -20
-20 -20 -20 -20 -20 -6 -20 -20 -20 13 -20 -20 -20 -20 -20 -20 -20 -20 -20 -20 -20 -20 -20 -20 -20 -20 -20 -20 -20 -20 -20 -20 -20 -20 -20 -20 -20 -20 -20 -20 -20 -20 -20

GFSSE_prec_radar_291.txt.gz
Reflectivity
-8 -20 -20 -20 -20 -20 -20 -20 -20 -14 -20 -20 13 5 24 22 1 -20 23 30 -17 10 -17 -20 -20 -16 19 12 -16 -5 -17 -10 -20 -20 -18 -20 -20 -20 -20 -20 -18 -10 -20
-20 -20 -20 -20 -16 -16 23 -20 -20 -20 -20 -20 1 26 24 20 15 23 18 14 -4 -5 -20 8 31 30 -12 -20 -20 -20 -20 -20 -20 -20 -20 -20 -19 -20 -20 -19 23 -20 -20
-20 -20 -7 -20 -20 -12 -20 -20 -20 -20 -20 -20 30 27 24 22 19 5 17 -4 -17 -8 10 28 31 -18 -20 -20 -20 -3 -20 -20 -20 -20 -18 -20 -20 -14 -20 -20 -20 -20 -20
-8 -20 -20 -16 -20 -20 -20 -5 6 12 6 21 29 28 39 20 27 -15 0 -11 -17 -20 9 29 -11 -14 -16 3 -7 -7 -20 -20 -20 -12 -20 -20 -20 -20 -20 -20 -20 -20 7
-20 -20 -10 -20 -17 -12 -19 -20 -6 1 7 11 31 30 42 10 30 16 3 -2 -10 -12 26 26 -20 -5 -16 -13 -20 -20 -20 -20 -20 -20 -20 -20 -20 -20 -20 -20 2 14 11
-20 -20 -20 -20 -7 -3 -2 -11 -20 -20 -19 31 31 27 32 23 27 -19 -20 -20 -20 29 29 -1 -20 -20 -20 -20 -20 -20 -20 -20 -20 -20 -20 -20 -20 -20 -20 -20 -20 -20 -20
-20 -20 -20 -15 12 -12 -7 -15 -20 -20 -20 -16 23 28 16 -4 27 -14 18 3 21 25 -9 -18 -20 -16 -5 -2 -20 -20 -20 -20 -20 -20 -20 -20 -20 -20 -20 -20 -15 -7 -20
-20 -20 -20 -15 -3 -18 9 -20 -20 -20 -20 -20 -2 -1 16 14 20 15 28 19 26 -12 0 -20 -20 -20 -20 -20 -20 -20 -20 -20 -20 -20 -20 -20 -20 -20 -20 -20 -11 -20 -8
-20 -20 -20 -20 -16 -20 -20 -20 -20 -20 -20 -20 10 -19 16 21 -4 16 12 29 32 -20 -20 -20 -20 -20 -20 -20 -20 -20 -20 -20 -20 -20 -20 -20 -20 -20 -20 -20 -20 -20 -20
-20 -20 -20 20 -20 -20 -20 -12 -14 -20 -20 -20 11 7 12 23 28 30 0 27 -3 1 -20 -20 -20 -20 -20 -20 -20 -20 -20 -20 -20 -19 -20 -20 -20 -20 -20 -20 -20 -20 -20
-20 -20 -20 -20 -2 -20 -20 -11 -20 -20 -20 -19 -19 -17 13 24 13 15 28 16 -5 -20 -20 -20 -20 -20 -20 -20 -20 -20 -19 38 -20 -1 -15 -20 -20 -20 -20 -20 -20 -20 -9
-20 -20 -20 -20 -20 -20 -20 -17 12 -20 -5 3 -20 -16 7 -9 -20 -20 3 23 14 -20 -20 -20 -20 -20 -20 -20 -20 -20 -20 -7 16 -17 -15 -20 -20 -20 -20 -20 -20 -20 -20
-20 -20 -20 -20 -20 -20 -20 -20 -16 -15 -18 -20 -20 -20 7 -20 -20 -20 -19 16 7 -20 -13 -20 -16 -20 -20 -20 14 -7 18 -20 14 21 13 -19 -20 -20 -20 -20 -20 -17 -20
-20 -20 -20 -20 -20 -20 -19 -20 -20 -19 -20 -20 -20 -20 -20 -20 -20 -20 -14 7 -10 -10 8 -19 -20 -20 -20 -20 -20 -20 -20 -17 -17 18 -20 13 -20 -18 -19 -20 -20 -20 -20
-20 -20 -20 -20 -20 -20 -20 -20 -20 -4 -7 -20 -20 -20 -20 -5 -9 0 -20 -20 -20 -18 13 12 -3 -20 -20 -20 -20 -20 -20 -13 -4 14 -19 4 -20 -0 -20 -20 -20 4 -20
-20 -20 -20 -20 -20 -20 -20 -20 -20 -20 -20 -20 -20 -20 -18 -20 -20 -20 -20 -20 -11 15 -6 -16 -20 -20 -20 -20 -20 -15 -7 -13 19 4 -20 -20 -20 -20 -20 2 -13 -18 19
-20 -20 -20 -16 -20 -20 -20 -20 -20 -20 -19 6 -20 -20 11 -20 -19 -20 -20 -20 -11 -19 -7 -20 -20 -19 -20 -20 4 -19 -9 -16 -20 -20 -20 -20 -20 17 -11 -15 -11 33 -18
-20 -20 -20 -20 -8 -20 -20 -20 -20 -20 -9 -18 -5 2 -20 -20 -20 -20 -17 -20 -20 -20 -20 -20 -2 -5 -15 -20 -17 -4 1 -11 -15 -20 -19 -14 -20 29 18 -7 -20 -19 -20
-20 -20 -20 -20 -20 -20 -20 -10 6 -19 -20 -17 -18 -20 -20 -20 -20 -20 -20 -20 -5 -20 -20 -20 -16 -15 -20 -20 -20 -19 -6 -20 -20 -18 22 -7 -19 -20 13 24 -1 -20 -20
-20 -20 -20 -20 -20 -20 -20 -20 -7 13 7 2 -19 -15 -8 -20 -13 -20 -20 -11 -20 31 -18 -20 -20 -20 -20 -20 -20 -20 -16 -1 -20 -16 -8 -18 -20 -10 -8 16 -19 -20 20
-20 -20 -20 -20 -20 -20 -20 -20 7 -2 -5 -20 -11 -20 -20 -20 -20 -20 -17 -16 -20 -20 -20 -20 -20 -20 -20 -20 -17 -20 -20 -20 -20 -18 -20 -20 -20 -20 -11 -20 -20 -18 24
-20 -20 -20 -20 -20 -20 -20 -20 -20 -20 -9 -20 -20 -20 -20 -20 -20 -20 -20 -20 -20 -17 9 12 19 22 8 -6 -9 -20 -20 14 -20 -8 -14 -20 -20 -20 -20 -20 -20 -20 -20
-20 -20 -20 -20 -20 -20 -20 -20 -20 -20 -20 -20 -20 -20 -20 -20 -20 -20 -17 -15 -20 -20 -20 -20 -8 -2 -13 -18 -15 -1 -4 30 -9 -5 -20 -20 -20 -20 -20 -20 -20 -20 -20
-20 -20 -20 -20 -20 -20 -20 -20 -20 -20 -20 -20 -20 -20 -20 -20 -20 -20 -20 -20 -20 10 2 -16 -1 -20 0 -8 -20 -11 -16 12 -14 27 -7 -18 -0 -20 -20 -20 -20 -20 -20
-20 -20 -20 -20 -20 -20 -20 -20 -20 -20 -20 -20 -20 -19 -20 -20 -20 -20 -20 -20 -19 -20 11 -18 -20 9 -20 -20 -20 25 -20 -19 -17 -20 -20 -20 21 14 -20 -20 -20 -20 13
-20 -20 -20 -20 -20 -20 -20 -20 -20 -20 -20 -20 -20 -20 -20 -20 -20 -20 -20 -16 -1 23 2 -20 -20 -20 -20 6 2 -20 19 -9 30 13 -7 16 21 4 -20 -20 -20 -20 -15